Location: Lane
(33.5226°N, 79.8788°W)
Time: 05:07:36
(UTC+00:00)

Vanguard 2 - Pass Details

Date: 11 October 2022
Orbit: 553 x 2933 km, 32.9° (Epoch: 26 November)

Event Time Altitude Azimuth Distance (km) Brightness Sun altitude
Rises 19:07:14 0° 278° (W) 4,448 11.8 40.2°
Reaches altitude 10° 19:09:43 10° 277° (W) 3,730 11.5 39.8°
Maximum altitude 19:20:07 79° 193° (SSW) 2,200 10.7 38.3°
Drops below altitude 10° 19:36:35 10° 109° (ESE) 5,615 11.8 35.8°
Sets 19:41:18 0° 109° (ESE) 6,745 12.1 35.1°
